Preview of NWS' New Version of Forecast
This preview is not operational and should not be used for support decisions.

Regional Weather Roundup (RWR)

Issued by Gray - Portland, ME (GYX)

                            
000
ASUS41 KGYX 231305
RWRGYX
WEATHER ROUNDUP FOR MAINE AND NEW HAMPSHIRE
NATIONAL WEATHER SERVICE GRAY ME
900 AM EDT TUE JUL 23 2019

MEZ002-005-006-010-012-015-018-020-021-024-026-027-029-231400-
MAINE
  
CITY           SKY/WX    TMP DP  RH WIND       PRES   REMARKS
PORTLAND       LGT RAIN  61  56  83 N5        29.88R                  
SANFORD        LGT RAIN  60  57  89 NE8       29.88R                  
BAR HARBOR     LGT RAIN  62  59  90 W3        29.86R                  
WISCASSET      LGT RAIN  62  58  86 CALM      29.88S                  
ROCKLAND       LGT RAIN  61  58  90 NW3       29.87R                  
FRYEBURG       CLOUDY    60  58  92 SW3       29.89S                  
LEWISTONAUBURN LGT RAIN  61  59  93 NW6       29.88S                  
AUGUSTA        LGT RAIN  62  58  86 CALM      29.87S                  
WATERVILLE     LGT RAIN  62  57  83 CALM      29.85R                  
BANGOR         CLOUDY    63  57  81 NW5       29.86R                  
GREENVILLE       N/A     60  54  80 CALM      29.86R                  
MILLINOCKET    CLOUDY    62  55  77 CALM      29.86R                  
HOULTON        PTSUNNY   61  53  75 CALM      29.83S                  
PRESQUE ISLE   FAIR      59  55  87 CALM      29.84F                  
FRENCHVILLE    FAIR      59  52  77 CALM      29.83F                  
CARIBOU        FAIR      60  53  77 CALM      29.83S                  
$$

NHZ002-005-008-009-011-012-014-231400-
NEW HAMPSHIRE
  
CITY           SKY/WX    TMP DP  RH WIND       PRES   REMARKS
PORTSMOUTH     LGT RAIN  60  58  94 N7        29.84S FOG              
ROCHESTER      LGT RAIN  60  57  89 E5        29.87R                  
NASHUA         LGT RAIN  63  63 100 N10       29.85S                  
MANCHESTER     LGT RAIN  63  61  93 N13       29.83F                  
CONCORD        LGT RAIN  62  59  90 N6        29.87R                  
LACONIA        RAIN      60  57  89 NE9       29.88S                  
PLYMOUTH       LGT RAIN  60  58  91 CALM      29.88R                  
BERLIN         LGT RAIN  61  58  90 CALM      29.89S                  
WHITEFIELD     PTSUNNY   60  56  86 CALM      29.89S                  
JAFFREY        LGT RAIN  62  59  90 VRB5      29.86S FOG              
KEENE          LGT RAIN  64  63  96 N5        29.84F                  
LEBANON        LGT RAIN  64  59  83 N3        29.86F                  
MT WASHINGTON  LGT RAIN  47  46  96 N2          N/A                   
$$

VTZ005-007-008-231400-
VERMONT
  
CITY           SKY/WX    TMP DP  RH WIND       PRES   REMARKS
ST JOHNSBURY     N/A     62  60  93 MISG      29.87S                  
MONTPELIER     PTSUNNY   62  60  93 CALM      29.93R                  
BURLINGTON     PTSUNNY   66  60  81 CALM      29.87R                  
$$

MAZ007-012-024-CTZ003-RIZ002-NYZ038-NYZ072-231400-
SOUTHERN NEW ENGLAND AND NY
  
CITY           SKY/WX    TMP DP  RH WIND       PRES   REMARKS
BOSTON         LGT RAIN  66  63  90 NE13      29.81R                  
WORCESTER      LGT RAIN  61  61 100 NE7       29.84R FOG              
NANTUCKET      FAIR      73  71  93 S12       29.76R                  
PROVIDENCE     HVY RAIN  65  64  97 NE15      29.78F FOG              
HARTFORD       LGT RAIN  65  62  90 N8        29.80R                  
ALBANY         CLOUDY    66  62  87 N8        29.85S                  
NEW YORK CITY  CLOUDY    69  63  81 N10       29.77R                  
$$

ANZ081-ANZ082-ANZ150-NHZ014-MEZ023>029-231400-
COASTAL MARINE OBSERVATIONS
  
STATION/POSITION TIME  TEMP    WIND        PRES    WAVE
                       AIR SEA DIR/SP/G            HT/PER
                 (UTC) (F)     (DEG/KT/KT) (MB)    (FT/S)
ISLE OF SHOALS   1200   60      30/ 16/ 17 1010.3R
JEFFREYS LEDGE   1238      67                N/A     4/ 5
CASHES LEDGE BUO 1250   58 59  340/ 10/ 14 1011.6R   3/ 5
GEORGES BANK BUO 1250   66 61  220/ 10/ 12 1011.3R   5/ 6
$$

.............KEY..............
   WCI - WIND CHILL
   TC  - TEMPERATURE IN CELSIUS
   VSB - VISIBILITY IN MILES
   HX  - HEAT INDEX
   FAIR- INDICATES FEW OR NO CLOUDS BELOW 12,000 FT, WITH NO 
         SIGNIFICANT WEATHER AND/OR OBSTRUCTIONS TO VISIBILITY.